Regional Weather Roundup
Issued by NWS

Home | Current Version | Previous Version | Text Only | Print | Product List | Glossary On
Versions: 1 2 3 4 5 6 7 8 9 10 11 12 13 14 15 16 17 18 19 20 21 22 23 24 25 26 27 28 29 30 31 32 33 34 35 36 37 38 39 40 41 42 43 44 45 46 47 48 49 50
638
ASUS42 KKEY 301910
RWRKEY

FLORIDA REGIONAL WEATHER ROUNDUP FOR THE FLORIDA KEYS
NATIONAL WEATHER SERVICE KEY WEST FLORIDA
300 PM EDT FRI SEP 30 2016

...SOUTH FLORIDA AND THE KEYS...

CITY           SKY/WX    TMP DP  RH WIND       PRES   REMARKS
FORT MYERS     MOSUNNY   89  73  59 SW8       29.98F HX  97
SW REGIONAL AP CLOUDY    89  72  56 W9        29.99F HX  96
NAPLES         MOSUNNY   88  74  63 SW9       29.98F HX  96
MIAMI          PTSUNNY   91  74  57 SE12      29.99F HX 100
WEST KENDALL   PTSUNNY   89  73  59 E10       29.98F HX  97
HOMESTEAD      SUNNY     89  76  64 E12       29.98F HX 100
MARATHON       MOSUNNY   89  77  67 VRB5      29.98F HX 101
BOCA CHICA NAS MOSUNNY   89  75  63 SE8       29.98F HX  99
KEY WEST INTL  SUNNY     88  78  72 SE6       29.98F HX 101

...INTERNATIONAL WEATHER...

CITY           SKY/WX    TMP DP  RH WIND       PRES   REMARKS
NASSAU BAHAMAS PTSUNNY   90  68  48 NE8       30.02F THUNDER HX  93
CANCUN MEXICO  MOSUNNY   90  75  62 E9        29.96F HX 100
COZUMEL MEXICO MOSUNNY   86  77  74 MISG      29.97F HX  97

ADJACENT COASTAL WATERS...

STATION/POSITION TIME  SKY/WX   TEMP    WIND        PRES    WAVE
                                AIR SEA DIR/SP/G            HT/PER
                 (UTC)          (F)     (DEG/KT/KT) (MB)    (FT/S)
PULASKI SHOAL LI 1900            87      10/  1/  1 1015.7F
SAND KEY         1850            84      90/  4/  5 1016.0F
LONG KEY         1800            85 87  100/  5/  6 1016.6F
FOWEY ROCKS      1900            84 85  130/  7/  7 1015.9F

$$




USA.gov is the U.S. government's official web portal to all federal, state and local government web resources and services.